This demonstration page uses our WeatherBlox Daily Observations layout. Learn more.

39.01783, -85.05884

Hourly Observations for July 3, 2019

Temp ( °F °C ) Dew Point ( °F °C ) Humidity (%) Winds ( mph kmh ) Pressure ( in mb ) Visibility ( mi km ) Precip ( " mm )
12:52 am 00:52 Cloudy 75 23.9 69 20.6 82 82 SSW 8 13 29.91 1013 10 16.09344 0 0
1:52 am 01:52 Cloudy 74 23.3 67 19.4 79 79 SW 8 13 29.91 1013 10 16.09344 0 0
2:52 am 02:52 Cloudy 74 23.3 65 18.3 74 74 SW 7 11 29.88 1012 10 16.09344 0 0
3:52 am 03:52 Mostly Cloudy 72 22.2 65 18.3 79 79 SSW 5 7 29.88 1012 10 16.09344 0 0
4:52 am 04:52 Partly Cloudy 72 22.2 65 18.3 79 79 SW 3 6 29.88 1012 10 16.09344 0 0
5:52 am 05:52 Mostly Cloudy 71 21.7 64 17.8 79 79 SSW 3 6 29.91 1013 10 16.09344 0 0
6:52 am 06:52 Mostly Cloudy 70 21.1 65 18.3 84 84 Calm 29.91 1013 10 16.09344 0 0
7:52 am 07:52 Mostly Cloudy 74 23.3 65 18.3 74 74 ENE 9 15 29.91 1013 10 16.09344 0 0
8:52 am 08:52 Mostly Cloudy 75 23.9 68 20 79 79 SE 7 11 29.94 1014 10 16.09344 0 0
9:52 am 09:52 Partly Cloudy 79 26.1 69 20.6 72 72 SSE 10 17 29.91 1013 10 16.09344 0 0
10:52 am 10:52 Mostly Cloudy 81 27.2 69 20.6 67 67 SSE 6 9 29.94 1014 10 16.09344 0 0
11:52 am 11:52 Mostly Cloudy 84 28.9 70 21.1 63 63 Calm 29.94 1014 10 16.09344 0 0
12:52 pm 12:52 Mostly Cloudy 86 30 70 21.1 59 59 VRB 3 6 29.91 1013 10 16.09344 0 0
1:52 pm 13:52 Mostly Cloudy 88 31.1 70 21.1 55 55 WSW 6 9 29.91 1013 10 16.09344 0 0
2:52 pm 14:52 Cloudy 79 26.1 67 19.4 67 67 SSW 7 11 29.88 1012 10 16.09344 0 0
3:52 pm 15:52 Mostly Cloudy 77 25 68 20 74 74 SSW 8 13 29.88 1012 10 16.09344 0 0
4:52 pm 16:52 Cloudy 80 26.7 68 20 67 67 VRB 5 7 29.88 1012 10 16.09344 0 0
5:52 pm 17:52 Cloudy 81 27.2 68 20 65 65 Calm 29.88 1012 10 16.09344 0 0
6:52 pm 18:52 Mostly Cloudy 81 27.2 68 20 65 65 SSE 13 20 29.88 1012 10 16.09344 0 0
7:52 pm 19:52 Cloudy 79 26.1 69 20.6 72 72 SSW 7 11 29.88 1012 10 16.09344 0 0
9:52 pm 21:52 Cloudy 74 23.3 68 20 82 82 SSW 5 7 29.91 1013 10 16.09344 0 0
10:52 pm 22:52 Cloudy 73 22.8 69 20.6 87 87 SSW 5 7 29.94 1014 10 16.09344 0 0
11:52 pm 23:52 Cloudy 73 22.8 70 21.1 90 90 S 6 9 29.94 1014 7 11.265408 0 0

Powered by AerisWeather